TimeCDT,TemperatureF,Dew PointF,Humidity,Sea Level PressureIn,VisibilityMPH,Wind Direction,Wind SpeedMPH,Gust SpeedMPH,PrecipitationIn,Events,Conditions,WindDirDegrees,DateUTC
12:53 AM,61.0,57.9,90,30.03,8.0,Calm,Calm,-,N/A,,Partly Cloudy,0,2012-10-03 05:53:00
1:53 AM,62.1,59.0,90,30.03,10.0,Calm,Calm,-,N/A,,Clear,0,2012-10-03 06:53:00
2:53 AM,61.0,57.9,90,30.03,6.0,Calm,Calm,-,N/A,,Scattered Clouds,0,2012-10-03 07:53:00
3:53 AM,59.0,57.0,93,30.04,6.0,Calm,Calm,-,N/A,,Clear,0,2012-10-03 08:53:00
5:53 AM,57.0,55.0,93,30.07,4.0,Calm,Calm,-,N/A,,Clear,0,2012-10-03 10:53:00
6:53 AM,57.0,55.0,93,30.09,4.0,Calm,Calm,-,N/A,,Clear,0,2012-10-03 11:53:00
7:53 AM,62.1,57.9,86,30.11,9.0,Calm,Calm,-,N/A,,Clear,0,2012-10-03 12:53:00
8:53 AM,68.0,59.0,73,30.13,10.0,ENE,5.8,-,N/A,,Clear,70,2012-10-03 13:53:00
9:53 AM,70.0,61.0,73,30.14,10.0,East,3.5,-,N/A,,Clear,90,2012-10-03 14:53:00
10:53 AM,73.0,60.1,64,30.14,10.0,ENE,5.8,-,N/A,,Clear,60,2012-10-03 15:53:00
12:53 PM,77.0,60.1,56,30.12,10.0,ENE,5.8,-,N/A,,Clear,70,2012-10-03 17:53:00
1:53 PM,77.0,61.0,58,30.11,10.0,Variable,4.6,-,N/A,,Clear,0,2012-10-03 18:53:00
2:53 PM,79.0,60.1,52,30.10,10.0,ENE,5.8,-,N/A,,Clear,70,2012-10-03 19:53:00
3:53 PM,79.0,60.1,52,30.10,10.0,NE,3.5,-,N/A,,Clear,40,2012-10-03 20:53:00
4:53 PM,80.1,61.0,52,30.11,10.0,ENE,3.5,-,N/A,,Clear,60,2012-10-03 21:53:00
5:53 PM,75.9,62.1,62,30.12,10.0,East,5.8,-,N/A,,Clear,80,2012-10-03 22:53:00
6:53 PM,70.0,64.0,81,30.13,10.0,Calm,Calm,-,N/A,,Clear,0,2012-10-03 23:53:00
7:53 PM,66.9,63.0,87,30.14,10.0,Calm,Calm,-,N/A,,Clear,0,2012-10-04 00:53:00
8:53 PM,66.9,63.0,87,30.15,10.0,Calm,Calm,-,N/A,,Clear,0,2012-10-04 01:53:00
10:53 PM,66.0,61.0,84,30.16,10.0,Calm,Calm,-,N/A,,Clear,0,2012-10-04 03:53:00
11:53 PM,64.0,60.1,87,30.16,10.0,Calm,Calm,-,N/A,,Clear,0,2012-10-04 04:53:00